AUA1AB LOWW-EDDM

Flight info

Callsign AUA1AB
Flight time 0h 48m
Altitude 28000
Route SOVIL DCT SITNI DCT BAGSI DCT MATIG DCT AMADI Q113 NAPSA NAPSA1B
Aircraft E195/M-SDE3GILORVW/S

Departure

Time 2026-05-05 16:15
Airport Vienna International Airport (LOWW)

Arrival

Time 2026-05-05 17:04
Airport Munich Airport (EDDM)
Time Latitude Longitude Altitude Speed Heading
2026-05-05 15:40 48.11630 16.57041 608 ft 0 kts 27°
2026-05-05 16:10 48.11633 16.57043 619 ft 2 kts 27°
2026-05-05 16:10 48.11653 16.57059 614 ft 5 kts 27°
2026-05-05 16:10 48.11685 16.57099 623 ft 7 kts 63°
2026-05-05 16:10 48.11671 16.57169 613 ft 8 kts 114°
2026-05-05 16:11 48.11643 16.57257 616 ft 11 kts 116°
2026-05-05 16:11 48.11744 16.57372 618 ft 13 kts 344°
2026-05-05 16:12 48.11842 16.57330 615 ft 16 kts 344°
2026-05-05 16:12 48.11993 16.57344 616 ft 10 kts 65°
2026-05-05 16:13 48.12000 16.57568 615 ft 0 kts 105°
2026-05-05 16:13 48.11999 16.57575 613 ft 2 kts 105°
2026-05-05 16:13 48.11994 16.57602 608 ft 4 kts 105°
2026-05-05 16:14 48.11966 16.57753 608 ft 10 kts 109°
2026-05-05 16:14 48.11820 16.57885 611 ft 26 kts 164°
2026-05-05 16:15 48.10545 16.58403 701 ft 150 kts 165°
2026-05-05 16:15 48.08370 16.59428 2343 ft 170 kts 165°
2026-05-05 16:16 48.05914 16.60212 3660 ft 198 kts 188°
2026-05-05 16:16 48.03348 16.57852 4872 ft 248 kts 231°
2026-05-05 16:17 48.01365 16.53489 6700 ft 257 kts 234°
2026-05-05 16:17 48.00641 16.51003 7529 ft 265 kts 256°
2026-05-05 16:18 48.00629 16.45399 9168 ft 276 kts 269°
2026-05-05 16:18 48.00692 16.42513 9914 ft 280 kts 268°
2026-05-05 16:18 48.00868 16.36401 10911 ft 306 kts 270°
2026-05-05 16:19 48.00981 16.33228 11573 ft 311 kts 270°
2026-05-05 16:19 48.01090 16.29977 12337 ft 314 kts 270°
2026-05-05 16:19 48.01293 16.23390 13826 ft 320 kts 270°
2026-05-05 16:20 48.01526 16.16666 15137 ft 327 kts 270°
2026-05-05 16:20 48.01772 16.09820 16441 ft 333 kts 270°
2026-05-05 16:21 48.02031 16.02851 17697 ft 340 kts 271°
2026-05-05 16:22 48.02430 15.92161 19490 ft 350 kts 270°
2026-05-05 16:22 48.02702 15.84833 20713 ft 356 kts 271°
2026-05-05 16:23 48.03003 15.77372 21810 ft 363 kts 271°
2026-05-05 16:23 48.03152 15.73596 22327 ft 366 kts 271°
2026-05-05 16:23 48.03473 15.65926 23308 ft 372 kts 271°
2026-05-05 16:24 48.03631 15.62049 23727 ft 375 kts 271°
2026-05-05 16:24 48.03790 15.58183 24185 ft 377 kts 271°
2026-05-05 16:24 48.04112 15.50318 25111 ft 381 kts 272°
2026-05-05 16:25 48.04280 15.46356 25588 ft 383 kts 272°
2026-05-05 16:25 48.04615 15.38355 26454 ft 388 kts 272°
2026-05-05 16:25 48.04762 15.34312 26854 ft 390 kts 270°
2026-05-05 16:26 48.04857 15.26176 27408 ft 393 kts 269°
2026-05-05 16:26 48.04962 15.17936 27775 ft 404 kts 270°
2026-05-05 16:27 48.05021 15.13687 27788 ft 414 kts 270°
2026-05-05 16:27 48.05083 15.09384 27812 ft 423 kts 270°
2026-05-05 16:27 48.05144 15.04935 27779 ft 433 kts 270°
2026-05-05 16:27 48.05206 15.00410 27739 ft 435 kts 270°
2026-05-05 16:28 48.05264 14.95865 27738 ft 437 kts 270°
2026-05-05 16:28 48.05321 14.91314 27731 ft 438 kts 270°
2026-05-05 16:28 48.05378 14.86749 27733 ft 438 kts 270°
2026-05-05 16:28 48.05432 14.82181 27730 ft 439 kts 270°
2026-05-05 16:29 48.05474 14.77623 27730 ft 439 kts 269°
2026-05-05 16:29 48.05509 14.73104 27726 ft 438 kts 269°
2026-05-05 16:29 48.05544 14.68547 27727 ft 439 kts 269°
2026-05-05 16:29 48.05577 14.63988 27729 ft 439 kts 269°
2026-05-05 16:30 48.05604 14.59430 27732 ft 439 kts 269°
2026-05-05 16:30 48.05635 14.54873 27729 ft 438 kts 269°
2026-05-05 16:30 48.05666 14.50316 27723 ft 438 kts 269°
2026-05-05 16:30 48.05695 14.45750 27725 ft 438 kts 269°
2026-05-05 16:31 48.05720 14.41195 27723 ft 438 kts 269°
2026-05-05 16:31 48.05742 14.36693 27723 ft 438 kts 269°
2026-05-05 16:31 48.05765 14.32128 27719 ft 438 kts 269°
2026-05-05 16:31 48.05785 14.27577 27726 ft 438 kts 269°
2026-05-05 16:32 48.05803 14.23024 27726 ft 438 kts 269°
2026-05-05 16:32 48.05818 14.18469 27720 ft 438 kts 269°
2026-05-05 16:32 48.05832 14.13916 27726 ft 438 kts 269°
2026-05-05 16:32 48.05845 14.09351 27728 ft 438 kts 269°
2026-05-05 16:33 48.05855 14.04796 27726 ft 438 kts 269°
2026-05-05 16:33 48.05863 14.00229 27730 ft 439 kts 269°
2026-05-05 16:33 48.05871 13.95672 27733 ft 438 kts 268°
2026-05-05 16:33 48.05872 13.91115 27733 ft 438 kts 268°
2026-05-05 16:34 48.05874 13.86548 27732 ft 439 kts 268°
2026-05-05 16:34 48.05879 13.81992 27738 ft 438 kts 268°
2026-05-05 16:34 48.05880 13.77445 27736 ft 438 kts 268°
2026-05-05 16:34 48.05878 13.73001 27721 ft 417 kts 268°
2026-05-05 16:35 48.05879 13.68808 27689 ft 400 kts 268°
2026-05-05 16:35 48.05879 13.64680 27512 ft 397 kts 268°
2026-05-05 16:35 48.05872 13.60547 26906 ft 398 kts 268°
2026-05-05 16:35 48.05863 13.56416 26321 ft 394 kts 268°
2026-05-05 16:36 48.05862 13.52343 25757 ft 390 kts 269°
2026-05-05 16:36 48.06045 13.48320 25215 ft 386 kts 274°
2026-05-05 16:36 48.06320 13.44352 24692 ft 381 kts 274°
2026-05-05 16:36 48.06571 13.40421 24177 ft 377 kts 273°
2026-05-05 16:37 48.06798 13.36532 23686 ft 373 kts 272°
2026-05-05 16:37 48.07012 13.32680 23177 ft 370 kts 272°
2026-05-05 16:37 48.07216 13.28853 22597 ft 368 kts 272°
2026-05-05 16:37 48.07418 13.25049 22036 ft 366 kts 272°
2026-05-05 16:38 48.07615 13.21273 21489 ft 363 kts 272°
2026-05-05 16:38 48.07809 13.17566 20952 ft 360 kts 272°
2026-05-05 16:38 48.08001 13.13845 20428 ft 357 kts 272°
2026-05-05 16:38 48.08190 13.10158 19915 ft 354 kts 272°
2026-05-05 16:39 48.08378 13.06484 19411 ft 351 kts 272°
2026-05-05 16:39 48.08560 13.02854 18921 ft 349 kts 272°
2026-05-05 16:39 48.08741 12.99248 18442 ft 346 kts 272°
2026-05-05 16:39 48.08919 12.95668 17966 ft 344 kts 272°
2026-05-05 16:40 48.09097 12.92104 17428 ft 343 kts 272°
2026-05-05 16:40 48.09308 12.88602 16905 ft 340 kts 275°
2026-05-05 16:40 48.09660 12.85132 16384 ft 336 kts 276°
2026-05-05 16:40 48.10025 12.81699 15886 ft 332 kts 276°
2026-05-05 16:41 48.10368 12.78284 15398 ft 330 kts 275°
2026-05-05 16:41 48.10697 12.74885 14924 ft 329 kts 275°
2026-05-05 16:41 48.11019 12.71509 14460 ft 326 kts 275°
2026-05-05 16:41 48.11336 12.68171 14011 ft 322 kts 275°
2026-05-05 16:42 48.11627 12.65049 13590 ft 318 kts 275°
2026-05-05 16:42 48.11928 12.61789 13106 ft 314 kts 275°
2026-05-05 16:42 48.12226 12.58567 12629 ft 311 kts 275°
2026-05-05 16:42 48.12518 12.55383 12162 ft 307 kts 274°
2026-05-05 16:43 48.12806 12.52229 11708 ft 303 kts 274°
2026-05-05 16:43 48.13092 12.49117 11267 ft 300 kts 274°
2026-05-05 16:43 48.13371 12.46081 10846 ft 297 kts 274°
2026-05-05 16:43 48.13836 12.43079 10401 ft 300 kts 291°
2026-05-05 16:44 48.15138 12.40622 9957 ft 305 kts 317°
2026-05-05 16:44 48.16826 12.38690 9554 ft 303 kts 319°
2026-05-05 16:44 48.18441 12.36665 9115 ft 300 kts 315°
2026-05-05 16:44 48.19943 12.34518 8676 ft 297 kts 312°
2026-05-05 16:45 48.21385 12.32326 8328 ft 293 kts 312°
2026-05-05 16:45 48.22456 12.30663 8089 ft 289 kts 311°
2026-05-05 16:45 48.23829 12.28505 7769 ft 285 kts 311°
2026-05-05 16:45 48.25192 12.26348 7454 ft 283 kts 311°
2026-05-05 16:46 48.26540 12.24209 7155 ft 281 kts 312°
2026-05-05 16:46 48.27883 12.22072 6858 ft 280 kts 312°
2026-05-05 16:46 48.29221 12.19950 6563 ft 280 kts 312°
2026-05-05 16:46 48.30560 12.17811 6272 ft 280 kts 312°
2026-05-05 16:47 48.31892 12.15679 5965 ft 279 kts 312°
2026-05-05 16:47 48.33199 12.13577 5666 ft 277 kts 312°
2026-05-05 16:47 48.34513 12.11446 5364 ft 275 kts 312°
2026-05-05 16:47 48.35781 12.09358 5058 ft 268 kts 312°
2026-05-05 16:48 48.36940 12.07204 4788 ft 262 kts 297°
2026-05-05 16:48 48.37250 12.04585 4393 ft 260 kts 260°
2026-05-05 16:48 48.36375 12.02305 3868 ft 252 kts 217°
2026-05-05 16:48 48.34843 12.01301 3782 ft 233 kts 198°
2026-05-05 16:49 48.33453 12.00146 3799 ft 229 kts 226°
2026-05-05 16:49 48.32779 11.98307 4009 ft 227 kts 257°
2026-05-05 16:49 48.32814 11.95949 3892 ft 233 kts 283°
2026-05-05 16:49 48.33279 11.93629 3733 ft 231 kts 289°
2026-05-05 16:50 48.33770 11.91341 3548 ft 229 kts 286°
2026-05-05 16:50 48.33873 11.88986 3327 ft 227 kts 256°
2026-05-05 16:50 48.33289 11.86837 3337 ft 220 kts 246°
2026-05-05 16:50 48.32672 11.84720 3360 ft 223 kts 247°
2026-05-05 16:51 48.31887 11.82711 3378 ft 226 kts 226°
2026-05-05 16:51 48.30717 11.81128 3428 ft 225 kts 219°
2026-05-05 16:51 48.29414 11.80037 3492 ft 207 kts 191°
2026-05-05 16:51 48.28046 11.80007 3559 ft 189 kts 177°
2026-05-05 16:52 48.26785 11.80038 3600 ft 173 kts 179°
2026-05-05 16:52 48.25623 11.80054 3510 ft 163 kts 179°
2026-05-05 16:52 48.24520 11.80077 3294 ft 160 kts 178°
2026-05-05 16:52 48.23260 11.80101 3473 ft 198 kts 179°
2026-05-05 16:53 48.21872 11.80123 4517 ft 207 kts 179°
2026-05-05 16:53 48.20283 11.80127 4909 ft 253 kts 179°
2026-05-05 16:53 48.18558 11.80195 4957 ft 240 kts 171°
2026-05-05 16:53 48.17074 11.81108 4935 ft 227 kts 139°
2026-05-05 16:54 48.16247 11.83050 4920 ft 224 kts 102°
2026-05-05 16:54 48.16414 11.85287 5278 ft 224 kts 65°
2026-05-05 16:54 48.17352 11.87221 5338 ft 234 kts 45°
2026-05-05 16:54 48.18425 11.89044 5332 ft 234 kts 57°
2026-05-05 16:55 48.19299 11.91101 5012 ft 240 kts 58°
2026-05-05 16:55 48.20168 11.93143 5057 ft 227 kts 58°
2026-05-05 16:55 48.21009 11.95132 5066 ft 225 kts 58°
2026-05-05 16:55 48.21859 11.97124 5075 ft 227 kts 58°
2026-05-05 16:56 48.22711 11.99124 5103 ft 228 kts 58°
2026-05-05 16:56 48.23570 12.01138 5087 ft 229 kts 58°
2026-05-05 16:56 48.24426 12.03147 5099 ft 228 kts 58°
2026-05-05 16:56 48.25277 12.05143 5103 ft 224 kts 58°
2026-05-05 16:57 48.26094 12.07060 5055 ft 219 kts 58°
2026-05-05 16:57 48.26921 12.08999 5011 ft 223 kts 58°
2026-05-05 16:57 48.27768 12.10986 4984 ft 226 kts 58°
2026-05-05 16:57 48.28609 12.12954 5067 ft 223 kts 58°
2026-05-05 16:58 48.29606 12.14674 5103 ft 213 kts 34°
2026-05-05 16:58 48.30983 12.15225 5081 ft 205 kts 355°
2026-05-05 16:58 48.32350 12.14716 5041 ft 202 kts 343°
2026-05-05 16:58 48.33234 12.14256 4928 ft 202 kts 335°
2026-05-05 16:59 48.34241 12.12872 4927 ft 198 kts 301°
2026-05-05 16:59 48.35085 12.10422 5031 ft 202 kts 294°
2026-05-05 16:59 48.35583 12.08446 4971 ft 204 kts 286°
2026-05-05 16:59 48.35942 12.07092 4761 ft 208 kts 298°
2026-05-05 17:00 48.36506 12.05105 4434 ft 208 kts 276°
2026-05-05 17:00 48.36293 12.02976 4103 ft 200 kts 253°
2026-05-05 17:00 48.35977 12.00990 3944 ft 195 kts 263°
2026-05-05 17:00 48.35880 11.98944 3740 ft 196 kts 266°
2026-05-05 17:01 48.35740 11.96950 3508 ft 191 kts 262°
2026-05-05 17:01 48.35575 11.95028 3261 ft 179 kts 263°
2026-05-05 17:01 48.35432 11.93219 3025 ft 170 kts 264°
2026-05-05 17:01 48.35315 11.91502 2811 ft 160 kts 264°
2026-05-05 17:02 48.35193 11.89891 2624 ft 149 kts 264°
2026-05-05 17:02 48.35076 11.88389 2427 ft 141 kts 264°
2026-05-05 17:02 48.34970 11.86966 2320 ft 135 kts 265°
2026-05-05 17:02 48.34867 11.85560 2336 ft 132 kts 265°
2026-05-05 17:03 48.34758 11.84168 2066 ft 136 kts 263°
2026-05-05 17:03 48.34640 11.82817 1866 ft 126 kts 265°
2026-05-05 17:03 48.34539 11.81538 1688 ft 125 kts 265°
2026-05-05 17:03 48.34452 11.80225 1500 ft 127 kts 265°
2026-05-05 17:04 48.34368 11.79018 1463 ft 102 kts 264°
2026-05-05 17:04 48.34303 11.78181 1470 ft 59 kts 264°
2026-05-05 17:04 48.34384 11.77768 1465 ft 39 kts 294°
2026-05-05 17:04 48.34453 11.77524 1462 ft 7 kts 292°
2026-05-05 17:05 48.34468 11.77474 1464 ft 5 kts 297°
2026-05-05 17:05 48.34503 11.77435 1465 ft 7 kts 343°
2026-05-05 17:05 48.34559 11.77427 1462 ft 9 kts 356°
2026-05-05 17:05 48.34619 11.77454 1463 ft 10 kts 45°
2026-05-05 17:06 48.34637 11.77557 1465 ft 11 kts 82°
2026-05-05 17:06 48.34645 11.77678 1465 ft 12 kts 84°
2026-05-05 17:06 48.34655 11.77814 1463 ft 14 kts 83°
2026-05-05 17:06 48.34668 11.77968 1462 ft 16 kts 83°
2026-05-05 17:07 48.34681 11.78135 1457 ft 17 kts 83°
2026-05-05 17:07 48.34695 11.78317 1465 ft 18 kts 84°
2026-05-05 17:07 48.34710 11.78512 1461 ft 19 kts 83°
2026-05-05 17:07 48.34727 11.78720 1463 ft 21 kts 83°
2026-05-05 17:08 48.34743 11.78938 1466 ft 22 kts 83°
2026-05-05 17:08 48.34761 11.79167 1466 ft 23 kts 85°
2026-05-05 17:08 48.34774 11.79356 1462 ft 18 kts 83°
2026-05-05 17:08 48.34787 11.79501 1465 ft 8 kts 82°
2026-05-05 17:09 48.34821 11.79567 1466 ft 8 kts 13°
2026-05-05 17:09 48.34878 11.79553 1463 ft 9 kts 349°
2026-05-05 17:09 48.34934 11.79543 1463 ft 5 kts 354°
2026-05-05 17:09 48.34966 11.79538 1466 ft 5 kts 355°
2026-05-05 17:10 48.35006 11.79532 1464 ft 7 kts 354°
2026-05-05 17:10 48.35059 11.79529 1466 ft 8 kts 11°
2026-05-05 17:10 48.35090 11.79601 1460 ft 9 kts 80°
2026-05-05 17:10 48.35098 11.79707 1466 ft 11 kts 84°
2026-05-05 17:11 48.35108 11.79831 1466 ft 13 kts 83°
2026-05-05 17:11 48.35118 11.79972 1466 ft 14 kts 83°
2026-05-05 17:11 48.35129 11.80108 1463 ft 12 kts 83°
2026-05-05 17:11 48.35135 11.80170 1466 ft 4 kts 74°
2026-05-05 17:12 48.35157 11.80193 1466 ft 4 kts 15°
2026-05-05 17:12 48.35197 11.80190 1463 ft 7 kts 354°
2026-05-05 17:12 48.35250 11.80181 1462 ft 9 kts 353°
2026-05-05 17:12 48.35320 11.80169 1463 ft 11 kts 353°
2026-05-05 17:13 48.35396 11.80150 1463 ft 10 kts 344°
2026-05-05 17:13 48.35457 11.80135 1464 ft 6 kts 353°
2026-05-05 17:13 48.35505 11.80124 1463 ft 7 kts 342°
2026-05-05 17:13 48.35516 11.80059 1461 ft 6 kts 264°
2026-05-05 17:14 48.35513 11.80024 1462 ft 3 kts 264°
2026-05-05 17:14 48.35512 11.80015 1463 ft 0 kts 264°